This demonstration page uses our WeatherBlox Daily Observations layout. Learn more.

Left ArrowRight Arrow

41.12389, -100.76542

Hourly Observations for January 31, 2019

Temp ( °F °C ) Dew Point ( °F °C ) Humidity (%) Winds ( mph kmh ) Pressure ( in mb ) Visibility ( mi km ) Precip ( " mm )
12:53 am 00:53 Cloudy 20 -6.7 14 -10 78 78 SSE 6 9 30.01 1016 10 16 0.00 0.00
1:53 am 01:53 Cloudy 19 -7.2 14 -10 81 81 S 5 7 29.97 1015 10 16 0.00 0.00
2:53 am 02:53 Partly Cloudy 18 -7.8 14 -10 84 84 ESE 3 6 29.97 1015 10 16 0.00 0.00
3:53 am 03:53 Clear 20 -6.7 16 -8.9 85 85 SSW 7 11 29.95 1014 10 16 0.00 0.00
4:53 am 04:53 Clear 18 -7.8 15 -9.4 88 88 SSW 3 6 29.96 1014 10 16 0.00 0.00
5:53 am 05:53 Clear 15 -9.4 12 -11.1 88 88 E 5 7 29.98 1015 10 16 0.00 0.00
6:53 am 06:53 Clear 17 -8.3 13 -10.6 84 84 SW 6 9 29.98 1015 10 16 0.00 0.00
7:53 am 07:53 Clear 16 -8.9 12 -11.1 84 84 SW 3 6 29.99 1016 10 16 0.00 0.00
8:53 am 08:53 Sunny 19 -7.2 15 -9.4 84 84 Calm 29.99 1016 10 16 0.00 0.00
9:53 am 09:53 Sunny 25 -3.9 19 -7.2 78 78 WNW 7 11 30.00 1016 10 16 0.00 0.00
10:53 am 10:53 Sunny 32 0 20 -6.7 61 61 NW 8 13 30.00 1016 10 16 0.00 0.00
11:53 am 11:53 Sunny 42 5.6 20 -6.7 41 41 WNW 7 11 29.98 1015 10 16 0.00 0.00
12:53 pm 12:53 Sunny 48 8.9 20 -6.7 33 33 NW 8 13 29.96 1014 10 16 0.00 0.00
1:53 pm 13:53 Sunny 54 12.2 17 -8.3 23 23 NNW 17 28 29.93 1014 10 16 0.00 0.00
2:53 pm 14:53 Sunny 53 11.7 18 -7.8 25 25 N 12 19 29.94 1014 10 16 0.00 0.00
3:53 pm 15:53 Sunny 54 12.2 21 -6.1 28 28 WNW 9 15 29.93 1014 10 16 0.00 0.00
4:53 pm 16:53 Sunny 53 11.7 21 -6.1 28 28 WNW 8 13 29.95 1014 10 16 0.00 0.00
5:53 pm 17:53 Sunny 42 5.6 21 -6.1 43 43 Calm 29.98 1015 10 16 0.00 0.00
6:53 pm 18:53 Clear 34 1.1 20 -6.7 56 56 Calm 30.01 1016 10 16 0.00 0.00
7:53 pm 19:53 Clear 30 -1.1 21 -6.1 69 69 Calm 30.04 1017 10 16 0.00 0.00
8:53 pm 20:53 Clear 28 -2.2 20 -6.7 72 72 Calm 30.04 1017 10 16 0.00 0.00
9:53 pm 21:53 Clear 23 -5 18 -7.8 81 81 Calm 30.04 1017 10 16 0.00 0.00
10:53 pm 22:53 Clear 21 -6.1 17 -8.3 85 85 NNW 5 7 30.04 1017 10 16 0.00 0.00
11:53 pm 23:53 Clear 20 -6.7 16 -8.9 85 85 NNW 3 6 30.03 1017 10 16 0.00 0.00

Powered by AerisWeather